Location: Moy Burn
(57.3833°N, 4.0667°W)
Time: 10:19:55
(UTC+00:00)

COSMOS 2428 - Pass Details

Date: 08 August 2020
Orbit: 844 x 859 km, 70.9° (Epoch: 18 September)

Event Time Altitude Azimuth Distance (km) Brightness Sun altitude
Rises 22:08:28 0° 318° (NW) 3,431 7.8 -11.8°
Reaches altitude 10° 22:11:07 10° 327° (NNW) 2,495 6.7 -12.0°
Maximum altitude 22:16:26 37° 35° (NE) 1,301 3.9 -12.3°
Drops below altitude 10° 22:21:44 10° 102° (ESE) 2,495 4.8 -12.7°
Enters shadow 22:22:36 - 106° (ESE) 2,794 5.0 -12.8°
